Tracking 18987 objects as of 25-Feb-2018
HD Live streaming from Space Station
objects crossing your sky now

FENGYUN 1C DEB

Track FENGYUN 1C DEB now!
10-day predictions


NORAD ID: 40684
Int'l Code: 1999-025EWQ
Perigee: 841.6 km
Apogee: 893.9 km
Inclination: 98.9 °
Period: 102.2 minutes
Semi major axis: 7238 km
RCS: Unknown
Launch date: May 10, 1999
Source: People's Republic of China (PRC)
Launch site: Taiyaun Space Center, China (TSC)

Note: This is SATELLITE DEBRIS
aabbcc
Your satellite tracking list
Your tracking list is empty




NASA's NSSDC Master Catalog

Two Line Element Set (TLE):
1 40684U 99025EWQ 18033.40196846 +.00000320 +00000-0 +20636-3 0  9995
2 40684 098.9180 097.0281 0036076 090.3196 270.2108 14.09640892210103
Source of the keplerian elements: AFSPC